Find Starlink 11603

NORAD ID: 63671 Int'l Des: 2025-085 Owner: SPXS Country: US Constellation: starlink operational
LEOCIRCULAR

Current View

Loading 3D Globe...

About Starlink 11603

Starlink 11603 (NORAD 63671) is a starlink constellation satellite (v2 mini d2c) launched Apr 28, 2025 by SPXS of US. It operates in LEO, CIRCULAR orbit with a mass of 960.00 kg.

About Starlink 11603

Description loading...

Upcoming Passes

Passes for default location (London). Set your location on the main map for personalized predictions.

Altitude History

Loading altitude history...

Two-Line Element Set

1 63671U 25085H 26170.94960994 .00161719 00000-0 12367-2 0 9995
2 63671 43.0002 22.1192 0001763 274.0639 86.0027 15.70891906 66325
Epoch: Jun 19, 2026 • Age: 26 hours

Current Status

Altitude 354.5 km
Velocity 7.70 km/s
Sub-Earth Point 5.95°N, 101.25°E
Launch Date Apr 28, 2025
Age 1.1 years
Type internet

Technical Details

Classification Payload
Mass 960.00 kg
Dry Mass 910.00 kg
Total Mass 960.00 kg
Length 0.30 m
Diameter 4.10 m
Span 29.00 m
Shape Box + pan
Manufacturer SPXS
Bus Type Starlink V2MD
Phase Status In Orbit
Owner/State SPXS/US

Most Searched